Location: B?jaj?g
(11.7167°N, 92.6667°E)
Time: 23:22:59
(UTC+00:00)

SL-16 R/B - Pass Details

Date: 18 September 2020
Orbit: 842 x 846 km, 71.0° (Epoch: 31 October)

Event Time Altitude Azimuth Distance (km) Brightness Sun altitude
Exits shadow 21:38:12 43° 9° (N) 1,162 2.9 -30.2°
Drops below altitude 10° 21:41:55 10° 14° (NNE) 2,454 4.8 -29.3°
Sets 21:44:21 0° 15° (NNE) 3,389 5.6 -28.7°
